sat.trackr.live / text

‹ back to catalog

STARLINK-31750

NORAD 59552 · 2024-074U

PAYLOAD ACTIVE UNKNOWN

§ Identity

Operator
Country
US
Launch date
2024-04-18
Launch site
AFETR
Launch vehicle
Mass (kg)
RCS (m²)

Purposes: comms

External: N2YO · Heavens-Above · Gunter

§ Orbital elements

Epoch: 2026-05-25T01:24:29.925216Z

Period
94.27 min
Inclination
43.0028°
Eccentricity
0.0001089
Mean motion
15.27571427 rev/d
Perigee alt
482.3 km
Apogee alt
483.8 km
Semi-major
6,861.2 km
B*
2.9672e-5
RAAN
272.2576°
Arg perigee
280.0939°
Mean anomaly
79.9790°
Rev number
11,769

§ Raw data

STARLINK-317501 59552U 24074U   26145.05867969  .00000554  00000+0  29672-4 0  99942 59552  43.0028 272.2576 0001089 280.0939  79.9790 15.27571427117691

JSON: /api/v1/satellites/59552 · /tle

For live sub-satellite position, see the globe view (requires WebGL).

§ Visibility from observer

Set your observer location to see the next 7 days of passes ≥ 10°. The values pass through the URL so the page stays shareable.

No JS? Fill the form by hand. The geolocation button needs JavaScript.